Regional Weather Roundup
Issued by NWS

Home | Current Version | Previous Version | Text Only | Print | Product List | Glossary On
Versions: 1 2 3 4 5 6 7 8 9 10 11 12 13 14 15 16 17 18 19 20 21 22 23 24 25 26 27 28 29 30 31 32 33 34 35 36 37 38 39 40 41 42 43 44 45 46 47 48 49 50
000
ASUS43 KMPX 191510
RWRMN
WEATHER ROUNDUP FOR MINNESOTA
NATIONAL WEATHER SERVICE TWIN CITIES/CHANHASSEN MN
1000 AM CDT SUN APR 19 2015


NOTE: "FAIR" INDICATES FEW OR NO CLOUDS BELOW 12,000 FEET WITH NO
SIGNIFICANT WEATHER AND/OR OBSTRUCTIONS TO VISIBILITY. N/A MEANS
CURRENT SKY AND/OR WEATHER CONDITIONS ARE NOT AVAILABLE.

MNZ060>063-068>070-191600-
   Twin Cities Metro

CITY           SKY/WX    TMP DP  RH WIND       PRES   REMARKS
TWIN CITIES    CLOUDY    52  47  83 SE9       29.68F
ST PAUL        CLOUDY    52  45  77 SE9       29.69F
CRYSTAL        CLOUDY    52  47  83 SE10      29.66F
BLAINE         CLOUDY    52  46  82 SE10      29.67F
LAKEVILLE      CLOUDY    54  52  94 SE5       29.68F
EDEN PRAIRIE   CLOUDY    53  50  89 SE6       29.66F
SOUTH ST PAUL  CLOUDY    52  45  77 S7        29.68F
LAKE ELMO      CLOUDY    50  45  81 SE8       29.70F
$$
MNZ001>005-007-008-013>017-022>024-027-028-191600-
   Northwest Minnesota

CITY           SKY/WX    TMP DP  RH WIND       PRES   REMARKS
BEMIDJI        CLOUDY    40  39  95 SE6       29.65F FOG
HALLOCK        LGT RAIN  45  43  93 NW14      29.68F
ROSEAU         DRIZZLE   45  39  81 SE3       29.66F
WARROAD        DRIZZLE   39  36  87 E6        29.67F
THIEF RVR FALL CLOUDY    45  43  93 S3        29.67F
CROOKSTON      RAIN      45  45 100 NW24      29.68F
FOSSTON        CLOUDY    45  43  93 CALM      29.66F
DETROIT LAKES  CLOUDY    45  43  93 N3        29.67F
MOORHEAD       DRIZZLE   45  43  93 NW23G31   29.70S
PARK RAPIDS    CLOUDY    42  39  89 NE6       29.63F
MAHNOMEN       CLOUDY    45  43  91 CALM      29.65S
$$
MNZ006-009>011-018-025>026-191600-
   North Central Minnesota

CITY           SKY/WX    TMP DP  RH WIND       PRES   REMARKS
BAUDETTE       CLOUDY    41  39  93 E13       29.68F
FLAG ISLAND    DRIZZLE   39  37  93 SE5       29.67F
INTL FALLS     LGT RAIN  41  39  93 E6        29.69F
WASKISH        CLOUDY    41  39  93 CALM      29.67F
BIG FORK       DRIZZLE   39  37  93 SE5       29.68S
LONGVILLE      DRIZZLE   39  39 100 CALM      29.64F
GRAND RAPIDS   CLOUDY    39  36  87 SE3       29.66F
ORR            DRIZZLE   39  36  87 CALM      29.67F
COOK           DRIZZLE   39  37  93 CALM      29.69F
WALKER         DRIZZLE   39  38  97 NE3       29.64F
$$
MNZ012-019>021-037-191600-
   Northeast Minnesota

CITY           SKY/WX    TMP DP  RH WIND       PRES   REMARKS
DULUTH         LGT RAIN  40  37  89 SE18G26   29.69F
ELY            LGT RAIN  39  37  93 SE10      29.69F
HIBBING        LGT RAIN  40  38  93 S7        29.67F FOG
EVELETH        LGT RAIN  39  37  93 SE7       29.69F
DULUTH HARBOR  RAIN      37  36  93 NE18      29.74F
TWO HARBORS    LGT RAIN  41  36  81 E8        29.72F
SILVER BAY     LGT RAIN  37  36  93 NE12G18   29.73F
GRAND MARAIS     N/A     38  35  89 NE12G20   29.83F
G MARAIS ARPRT LGT RAIN  34  30  86 E13G20    29.80F WCI  25
$$
MNZ029>031-032-039>041-046>048-054>057-064-191600-
   West Central Minnesota

CITY           SKY/WX    TMP DP  RH WIND       PRES   REMARKS
FERGUS FALLS   CLOUDY    46  46 100 NW10      29.69S FOG
WHEATON        CLOUDY    45  41  87 NW24G36   29.73R
MORRIS         CLOUDY    48  46  93 NW20G26   29.68R
ALEXANDRIA     CLOUDY    48  45  89 NW15      29.65S
ELBOW LAKE     CLOUDY    47  46  98 NW10      29.68R
WADENA         CLOUDY    43  41  93 N9        29.63S FOG
GLENWOOD       PTSUNNY   48  46  93 NW20      29.65F
APPLETON       MOSUNNY   52  48  87 NW15G28   29.70R
BENSON         CLOUDY    50  46  87 N18       29.68S
ORTONVILLE     CLOUDY    48  45  87 NW15G26   29.71S
MADISON        CLOUDY    50  46  87 NW13      29.72R
WILLMAR        PTSUNNY   48  48 100 NW17      29.69S
$$
MNZ033>034-036-042>043-049>051-058-059-191600-
   Central Minnesota

CITY           SKY/WX    TMP DP  RH WIND       PRES   REMARKS
ST CLOUD       LGT RAIN  50  48  93 SE12      29.64F FOG
SAUK CENTRE    CLOUDY    49  47  92 W13       29.64F
PAYNESVILLE    CLOUDY    47  47  99 SW10      29.66S
AITKIN         MIX PCPN  46  39  76 SE9       29.62F
PINE RIVER     CLOUDY    41  41 100 CALM      29.67F FOG
BRAINERD       CLOUDY    45  45 100 S5        29.63F FOG
STAPLES        CLOUDY    46  45  93 CALM      29.62F
LONG PRAIRIE   CLOUDY    46  46 100 SW7       29.63F
LITTLE FALLS   CLOUDY    46  46 100 SE7       29.62F FOG
LITCHFIELD     CLOUDY    54  54 100 W12       29.66S
BUFFALO        CLOUDY    51  48  89 SE7       29.66F
MAPLE LAKE     CLOUDY    52  51  96 S6        29.66F FOG
$$
MNZ037-044-045-052-053-191600-
   East Central Minnesota

CITY           SKY/WX    TMP DP  RH WIND       PRES   REMARKS
PRINCETON      CLOUDY    48  46  93 SE6       29.66F
MORA           CLOUDY    45  43  93 SE6       29.68F
CAMBRIDGE      CLOUDY    48  41  76 SE8       29.65F
RUSH CITY      CLOUDY    46  42  87 SE9       29.68F
MOOSE LAKE     CLOUDY    43  41  93 CALM      29.67F
HINCKLEY       CLOUDY    45  43  93 SE7       29.68F
CLOQUET        CLOUDY    39  37  93 SE8       29.69F FOG
MCGREGOR       CLOUDY    43  41  93 SE10      29.66F
$$
MNZ071>073-080-081-089-090-097-098-191600-
   Southwest Minnesota

CITY           SKY/WX    TMP DP  RH WIND       PRES   REMARKS
MONTEVIDEO     CLOUDY    52  52 100 N9        29.71R
GRANITE FALLS  CLOUDY    51  48  90 W12G18    29.71S
CANBY          CLOUDY    51  46  85 NW18G24   29.73S
MARSHALL       CLOUDY    52  43  71 NW16G22   29.71S
REDWOOD FALLS  CLOUDY    53  49  86 NW15G21   29.68F
OLIVIA         CLOUDY    50  46  87 NW15G21   29.68R
PIPESTONE      CLOUDY    52  46  82 N18G28    29.73S
WINDOM         CLOUDY    55  52  88 NW18G24   29.70S
WORTHINGTON    CLOUDY    52  46  82 NW16      29.71S
JACKSON        CLOUDY    54  54 100 NW9G20    29.70S FOG
TRACY          PTSUNNY   54  50  86 NW18      29.71F
SLAYTON        CLOUDY    51  48  90 NW15      29.72S
$$
MNZ065>067-074>077-082>085-091>093-191600-
   South Central Minnesota

CITY           SKY/WX    TMP DP  RH WIND       PRES   REMARKS
MANKATO        CLOUDY    57  52  82 SW10      29.68F
NEW ULM        CLOUDY    55  54  94 NW16G23   29.67F
ST JAMES       PTSUNNY   61  55  82 SW9       29.69F FOG
FAIRMONT       CLOUDY    55  46  71 SW6       29.69F
GLENCOE        CLOUDY    57  56  99 S7        29.65F FOG
FARIBAULT      CLOUDY    57  55  94 S8        29.68F
OWATONNA       PTSUNNY   57  54  88 S9        29.69S
ALBERT LEA     CLOUDY    55  55 100 S5        29.69F FOG
$$
MNZ078>079-086>088-094>096-191600-
   Southeast Minnesota

CITY           SKY/WX    TMP DP  RH WIND       PRES   REMARKS
ROCHESTER      CLOUDY    53  45  74 S13       29.72F
RED WING       CLOUDY    54  41  62 SE5       29.70F
STANTON        CLOUDY    57  51  80 S14       29.67F
DODGE CENTER   CLOUDY    55  48  76 S15       29.70F
WINONA         CLOUDY    54  41  62 SE9       29.73F
AUSTIN         CLOUDY    54  48  82 S8        29.70F
PRESTON        CLOUDY    53  44  73 SE8       29.73F
$$
ABBREVIATIONS USED IN REMARKS
   TC - TEMPERATURES IN CELSIUS
  WCI - WIND CHILL INDEX
   HX - HEAT INDEX
  VSB - VISIBILITY
$$



USA.gov is the U.S. government's official web portal to all federal, state and local government web resources and services.